FW9412 Weather Reports


Display with metric or nautical units.
time (UTC)temp
F
wind
direction
speed
MPH
gust
MPH
rain 1hr
in
rain 24hr
in
rain mn
in
humidity
%
barometer
mb
20260510115150 47 189 1.0 1.0 0.00 0.00 0.00 77 1012.2
20260510114645 47 171 0.0 0.0 0.00 0.00 0.00 77 1012.0
20260510114142 47 188 0.0 0.0 0.00 0.00 0.00 77 1012.0
20260510113637 47 157 0.0 0.0 0.00 0.00 0.00 78 1011.8
20260510113135 47 179 0.0 0.0 0.00 0.00 0.00 77 1011.8
20260510112631 47 186 1.0 1.0 0.00 0.00 0.00 78 1011.6
20260510112128 47 176 0.0 1.0 0.00 0.00 0.00 79 1011.7
20260510111624 47 181 1.0 1.0 0.00 0.00 0.00 80 1011.2
20260510111120 47 188 1.0 1.0 0.00 0.00 0.00 80 1011.3
20260510110616 47 174 1.0 1.0 0.00 0.00 0.00 78 1011.0
20260510110113 47 185 2.0 2.0 0.00 0.00 0.00 77 1010.9
20260510105609 48 214 2.0 2.0 0.00 0.00 0.00 77 1011.1
20260510105103 48 192 3.0 3.0 0.00 0.00 0.00 77 1011.0
20260510104600 48 221 2.0 2.0 0.00 0.00 0.00 81 1010.8
20260510104057 48 156 0.0 1.0 0.00 0.00 0.00 82 1010.5
20260510103554 48 200 2.0 2.0 0.00 0.00 0.00 81 1010.5
20260510103050 48 160 2.0 2.0 0.00 0.00 0.00 82 1010.3
20260510102545 48 214 2.0 2.0 0.00 0.00 0.00 82 1010.2
20260510102042 49 171 1.0 1.0 0.00 0.00 0.00 82 1009.7
20260510101539 49 179 1.0 2.0 0.00 0.00 0.00 83 1009.8
20260510101038 49 155 1.0 1.0 0.00 0.00 0.00 84 1009.8
20260510100533 49 183 2.0 2.0 0.00 0.00 0.00 84 1010.0
20260510100031 49 172 1.0 1.0 0.00 0.00 0.00 85 1009.8
20260510095527 49 206 2.0 2.0 0.00 0.00 0.00 87 1009.7
20260510095026 49 193 2.0 2.0 0.00 0.00 0.00 87 1009.7
20260510094521 49 250 3.0 3.0 0.00 0.00 0.00 88 1009.4
20260510094017 50 223 1.0 1.0 0.00 0.00 0.00 89 1009.1
20260510093513 50 210 3.0 3.0 0.00 0.00 0.00 90 1009.2
20260510093010 50 198 1.0 1.0 0.00 0.00 0.00 90 1009.1
20260510092507 50 195 2.0 2.0 0.00 0.00 0.00 90 1008.9
20260510092006 50 222 3.0 3.0 0.00 0.00 0.00 90 1008.8
20260510091503 50 157 2.0 2.0 0.00 0.00 0.00 90 1008.8
20260510090959 50 182 2.0 3.0 0.00 0.00 0.00 90 1008.6
20260510090457 50 227 3.0 3.0 0.00 0.00 0.00 90 1008.8
20260510085952 50 217 1.0 2.0 0.00 0.00 0.00 89 1008.8
20260510085447 50 181 1.0 1.0 0.00 0.00 0.00 89 1008.5
20260510084943 50 185 1.0 1.0 0.00 0.00 0.00 89 1008.5
20260510084440 50 198 1.0 1.0 0.00 0.00 0.00 89 1008.8
20260510083937 50 206 1.0 2.0 0.00 0.00 0.00 89 1008.6
20260510083433 50 187 1.0 1.0 0.00 0.00 0.00 89 1008.7
20260510082928 50 194 1.0 2.0 0.00 0.00 0.00 89 1008.8
20260510082427 50 191 1.0 2.0 0.00 0.00 0.00 90 1008.4
20260510081925 50 193 1.0 2.0 0.00 0.00 0.00 89 1008.5
20260510081421 50 194 1.0 2.0 0.00 0.00 0.00 89 1008.4
20260510080918 50 192 2.0 2.0 0.00 0.00 0.00 89 1008.3
20260510080417 50 188 1.0 1.0 0.00 0.00 0.00 89 1008.2
20260510075914 50 188 1.0 1.0 0.00 0.00 0.00 90 1008.1
20260510075412 50 174 1.0 1.0 0.00 0.00 0.00 90 1008.2
20260510074909 50 192 1.0 2.0 0.00 0.00 0.00 90 1008.2
20260510074406 50 183 1.0 1.0 0.00 0.00 0.00 90 1007.9
20260510073902 50 184 1.0 1.0 0.00 0.00 0.00 90 1007.8
20260510073357 50 173 1.0 1.0 0.00 0.00 0.00 89 1007.8
20260510072854 50 181 1.0 1.0 0.00 0.00 0.00 90 1008.0
20260510072351 50 178 1.0 1.0 0.00 0.00 0.00 90 1008.0
20260510071847 50 191 1.0 1.0 0.00 0.00 0.00 90 1008.1
20260510071343 50 198 1.0 2.0 0.00 0.00 0.00 90 1008.1
20260510070842 49 188 2.0 2.0 0.00 0.00 0.00 90 1008.1
20260510070338 49 182 1.0 1.0 0.00 0.00 0.00 90 1007.8
20260510065833 49 184 1.0 1.0 0.00 0.00 0.00 91 1007.7
20260510065330 49 175 1.0 2.0 0.00 0.00 0.00 91 1007.5
20260510064827 49 168 1.0 1.0 0.00 0.00 0.00 90 1007.6
20260510064325 50 163 1.0 1.0 0.00 0.00 0.00 90 1007.4
20260510063821 49 173 1.0 1.0 0.00 0.00 0.00 91 1007.5
20260510063317 49 188 2.0 2.0 0.00 0.00 0.00 91 1007.7
20260510062814 49 181 1.0 1.0 0.00 0.00 0.00 91 1007.5
20260510062310 49 163 0.0 0.0 0.00 0.00 0.00 91 1007.3
20260510061805 50 149 0.0 0.0 0.00 0.00 0.00 91 1007.3
20260510061303 50 181 1.0 1.0 0.00 0.00 0.00 91 1007.4
20260510060758 50 175 2.0 2.0 0.00 0.00 0.00 91 1007.6
20260510060256 50 174 1.0 1.0 0.00 0.00 0.00 91 1007.6
20260510055752 50 182 1.0 1.0 0.00 0.00 0.00 91 1007.9
20260510055251 49 191 1.0 2.0 0.00 0.00 0.00 92 1007.8
20260510054750 49 190 2.0 2.0 0.00 0.00 0.00 92 1008.1
20260510054247 49 175 1.0 1.0 0.00 0.00 0.00 92 1007.9
20260510053746 49 178 1.0 1.0 0.00 0.00 0.00 93 1008.0
20260510053242 49 186 1.0 2.0 0.00 0.00 0.00 93 1008.0
20260510052738 49 172 0.0 0.0 0.00 0.00 0.00 94 1007.7
20260510052234 49 171 1.0 2.0 0.00 0.00 0.00 94 1007.7
20260510051730 49 189 1.0 2.0 0.00 0.00 0.00 95 1007.9
20260510051227 49 165 0.0 1.0 0.00 0.00 0.00 95 1008.0
20260510050724 49 181 1.0 1.0 0.00 0.00 0.00 95 1008.0
20260510050221 49 175 1.0 1.0 0.00 0.00 0.00 95 1007.7
20260510045718 49 172 0.0 1.0 0.00 0.00 0.00 95 1007.5
20260510045214 49 192 2.0 2.0 0.00 0.00 0.00 95 1007.6
20260510044711 49 171 0.0 0.0 0.00 0.00 0.00 95 1007.4
20260510044209 49 188 2.0 2.0 0.00 0.00 0.00 95 1007.0
20260510043704 49 167 1.0 1.0 0.00 0.00 0.00 95 1007.3
20260510043201 49 175 1.0 1.0 0.00 0.00 0.00 95 1007.7
20260510042658 49 167 0.0 0.0 0.00 0.00 0.00 95 1007.3
20260510042154 49 187 1.0 2.0 0.00 0.00 0.00 95 1007.4
20260510041651 49 163 0.0 0.0 0.00 0.00 0.00 95 1007.4
20260510041148 49 157 0.0 0.0 0.00 0.00 0.00 95 1007.4
20260510040645 50 163 0.0 0.0 0.00 0.00 0.00 95 1007.5
20260510040142 50 168 0.0 0.0 0.00 0.00 0.00 95 1007.3
20260510035638 50 166 0.0 0.0 0.00 0.08 0.08 95 1007.3
20260510035133 50 167 1.0 2.0 0.00 0.08 0.08 95 1007.4
20260510034630 50 165 0.0 1.0 0.07 0.08 0.08 95 1007.3
20260510034127 50 154 0.0 1.0 0.07 0.08 0.08 94 1007.1
20260510033623 50 178 1.0 1.0 0.07 0.08 0.08 94 1007.1
20260510033121 50 186 3.0 3.0 0.05 0.07 0.07 94 1007.3
20260510032617 50 188 2.0 3.0 0.05 0.07 0.07 94 1007.5
20260510032113 50 182 1.0 1.0 0.07 0.06 0.06 94 1007.7
20260510031608 50 203 3.0 3.0 0.07 0.06 0.06 94 1007.5
20260510031105 50 214 1.0 2.0 0.07 0.06 0.06 94 1007.5
20260510030600 50 206 2.0 2.0 0.05 0.05 0.05 94 1007.7
20260510030057 50 201 3.0 3.0 0.00 0.04 0.04 93 1007.7
20260510025554 51 202 2.0 2.0 0.12 0.04 0.04 93 1007.8
20260510025052 51 214 3.0 3.0 0.19 0.04 0.04 93 1007.8
20260510024548 51 242 2.0 3.0 0.07 0.02 0.02 92 1007.9
20260510024045 51 242 4.0 5.0 0.07 0.01 0.01 92 1008.0
20260510023541 51 234 2.0 2.0 0.07 0.01 0.01 91 1007.8
20260510023038 51 216 2.0 2.0 0.00 0.00 0.00 91 1008.0
20260510022537 51 254 5.0 5.0 0.00 0.00 0.00 90 1008.0
20260510022032 52 200 3.0 3.0 0.00 0.00 0.00 89 1008.0
20260510021529 54 247 5.0 6.0 0.00 0.00 0.00 85 1008.1
20260510021026 55 241 9.0 10.0 0.00 0.00 0.00 81 1007.6
20260510020521 56 253 7.0 7.0 0.00 0.00 0.00 83 1007.5
20260510020016 56 211 2.0 2.0 0.00 0.00 0.00 83 1006.3
20260510015512 56 169 1.0 2.0 0.00 0.00 0.00 84 1006.1
20260510015008 55 182 1.0 2.0 0.00 0.00 0.00 85 1005.7
20260510014505 54 209 1.0 2.0 0.00 0.00 0.00 86 1005.6
20260510014002 54 153 0.0 0.0 0.00 0.00 0.00 86 1005.7
20260510013456 54 159 0.0 0.0 0.00 0.00 0.00 86 1005.5
20260510012953 54 152 0.0 0.0 0.00 0.00 0.00 86 1005.6
20260510012447 54 145 0.0 0.0 0.00 0.00 0.00 86 1006.0
20260510011942 54 145 0.0 0.0 0.00 0.00 0.00 86 1005.4
20260510011437 54 152 0.0 1.0 0.00 0.00 0.00 86 1005.5
20260510010934 54 125 0.0 1.0 0.00 0.00 0.00 86 1005.6
20260510010431 54 156 0.0 0.0 0.00 0.00 0.00 86 1005.6
20260510005928 54 141 0.0 0.0 0.00 0.00 0.00 86 1005.4
20260510005424 54 140 0.0 0.0 0.00 0.00 0.00 86 1005.0
20260510004921 54 152 0.0 1.0 0.00 0.00 0.00 86 1005.1
20260510004419 54 136 0.0 0.0 0.00 0.00 0.00 86 1005.1
20260510003917 54 146 0.0 0.0 0.00 0.00 0.00 85 1005.0
20260510003414 54 145 0.0 0.0 0.00 0.00 0.00 85 1005.2
20260510002912 54 140 1.0 1.0 0.00 0.00 0.00 85 1005.2
20260510002410 55 141 0.0 0.0 0.00 0.00 0.00 85 1005.2
20260510001906 55 142 0.0 0.0 0.00 0.00 0.00 84 1005.2
20260510001404 55 140 0.0 0.0 0.00 0.00 0.00 84 1005.2
20260510000901 55 154 0.0 1.0 0.00 0.00 0.00 84 1005.2
20260510000357 56 153 0.0 0.0 0.00 0.00 0.00 83 1005.4
20260509235854 56 146 0.0 0.0 0.00 0.00 0.00 83 1005.1
20260509235350 56 139 1.0 1.0 0.00 0.00 0.00 83 1005.2
20260509234847 56 153 0.0 0.0 0.00 0.00 0.00 82 1005.0
20260509234343 57 149 0.0 1.0 0.00 0.00 0.00 81 1005.3
20260509233842 57 152 0.0 0.0 0.00 0.00 0.00 81 1005.0
20260509233339 57 150 0.0 0.0 0.00 0.00 0.00 80 1004.9
20260509232834 58 152 0.0 0.0 0.00 0.00 0.00 80 1004.9
20260509232333 58 153 0.0 0.0 0.00 0.00 0.00 79 1005.1
20260509231828 58 155 1.0 1.0 0.00 0.00 0.00 78 1005.2
20260509231326 58 170 2.0 2.0 0.00 0.00 0.00 79 1005.0
20260509230823 58 160 0.0 0.0 0.00 0.00 0.00 78 1005.1
20260509230320 58 164 1.0 2.0 0.00 0.00 0.00 78 1004.9
20260509225815 58 160 0.0 1.0 0.00 0.00 0.00 77 1004.9
20260509225312 59 150 0.0 0.0 0.00 0.00 0.00 76 1004.9
20260509224808 59 183 1.0 2.0 0.00 0.00 0.00 75 1004.9
20260509224305 60 163 2.0 3.0 0.00 0.00 0.00 73 1005.0
20260509223801 60 162 0.0 1.0 0.00 0.00 0.00 73 1004.8
20260509223259 60 181 1.0 2.0 0.00 0.00 0.00 74 1005.1
20260509222755 60 181 2.0 2.0 0.00 0.00 0.00 73 1005.2
20260509222250 60 174 1.0 2.0 0.00 0.00 0.00 73 1004.7
20260509221746 60 172 1.0 2.0 0.00 0.00 0.00 74 1004.8
20260509221243 60 187 2.0 2.0 0.00 0.00 0.00 73 1005.0
20260509220739 60 171 0.0 0.0 0.00 0.00 0.00 73 1004.8
20260509220236 61 193 1.0 2.0 0.00 0.00 0.00 71 1005.2
20260509215731 62 148 1.0 1.0 0.00 0.00 0.00 71 1005.0
20260509215228 61 161 0.0 0.0 0.00 0.00 0.00 72 1005.2
20260509214725 61 168 1.0 1.0 0.00 0.00 0.00 73 1005.2
20260509214222 59 155 1.0 2.0 0.00 0.00 0.00 76 1005.1
20260509213719 59 160 1.0 2.0 0.00 0.00 0.00 75 1005.1
20260509213214 59 167 1.0 2.0 0.00 0.00 0.00 75 1005.1
20260509212712 59 154 2.0 2.0 0.00 0.00 0.00 75 1005.2
20260509212209 59 149 0.0 0.0 0.00 0.00 0.00 77 1004.9
20260509211705 59 134 1.0 2.0 0.00 0.00 0.00 77 1005.3
20260509211201 59 148 0.0 0.0 0.00 0.00 0.00 76 1005.4
20260509210658 59 165 0.0 1.0 0.00 0.00 0.00 76 1005.4
20260509210156 59 161 0.0 1.0 0.00 0.00 0.00 76 1005.3
20260509205651 59 136 0.0 0.0 0.00 0.00 0.00 77 1005.4
20260509205150 59 153 0.0 1.0 0.00 0.00 0.00 77 1005.3
20260509204646 59 130 0.0 1.0 0.00 0.00 0.00 77 1005.5
20260509204143 59 139 0.0 1.0 0.00 0.00 0.00 75 1005.4
20260509203639 59 155 0.0 0.0 0.00 0.00 0.00 76 1005.4
20260509203137 59 143 0.0 1.0 0.00 0.00 0.00 75 1005.5
20260509202637 59 169 0.0 1.0 0.00 0.00 0.00 75 1005.5
20260509202133 59 156 1.0 2.0 0.00 0.00 0.00 74 1005.5
20260509201628 59 140 0.0 1.0 0.00 0.00 0.00 73 1005.5
20260509201126 60 153 0.0 0.0 0.00 0.00 0.00 73 1005.7
20260509200621 60 136 1.0 2.0 0.00 0.00 0.00 74 1005.6
20260509200117 59 207 2.0 2.0 0.00 0.00 0.00 75 1005.8
20260509195613 60 214 2.0 2.0 0.00 0.00 0.00 75 1005.6
20260509195108 60 177 0.0 1.0 0.00 0.00 0.00 73 1005.7
20260509194607 61 167 0.0 0.0 0.00 0.00 0.00 72 1005.7
20260509194105 61 186 2.0 2.0 0.00 0.00 0.00 73 1005.8
20260509193601 61 121 2.0 2.0 0.00 0.00 0.00 71 1005.9
20260509193057 61 178 2.0 2.0 0.00 0.00 0.00 72 1006.0
20260509192554 60 187 2.0 2.0 0.00 0.00 0.00 73 1006.0
20260509192048 60 213 1.0 2.0 0.00 0.00 0.00 72 1006.2
20260509191543 59 156 1.0 1.0 0.00 0.00 0.00 74 1006.3
20260509191039 59 214 1.0 2.0 0.00 0.00 0.00 75 1006.0
20260509190536 60 187 2.0 2.0 0.00 0.00 0.00 74 1006.2
20260509190034 59 197 1.0 2.0 0.00 0.00 0.00 75 1006.4
20260509185531 59 139 0.0 0.0 0.00 0.00 0.00 77 1006.4
20260509185027 59 111 2.0 3.0 0.00 0.00 0.00 75 1006.4
20260509184526 60 159 2.0 3.0 0.00 0.00 0.00 75 1006.5
20260509184022 60 175 1.0 2.0 0.00 0.00 0.00 74 1006.7
20260509183517 60 118 1.0 2.0 0.00 0.00 0.00 75 1006.7
20260509183013 59 167 2.0 2.0 0.00 0.00 0.00 77 1006.7
20260509182510 57 142 0.0 0.0 0.00 0.00 0.00 79 1006.8
20260509182007 57 150 0.0 1.0 0.00 0.00 0.00 79 1006.7
20260509181505 57 156 1.0 2.0 0.00 0.00 0.00 78 1006.7
20260509181002 57 199 1.0 2.0 0.00 0.00 0.00 78 1006.7
20260509180457 58 170 1.0 2.0 0.00 0.00 0.00 79 1006.9
20260509175955 57 162 0.0 0.0 0.00 0.00 0.00 81 1006.6
20260509175450 56 146 0.0 0.0 0.00 0.00 0.00 82 1006.9
20260509174947 55 174 1.0 1.0 0.00 0.00 0.00 81 1006.9
20260509174443 55 181 1.0 1.0 0.00 0.00 0.00 82 1007.0
20260509173939 55 165 2.0 2.0 0.00 0.00 0.00 81 1006.7
20260509173433 55 171 1.0 1.0 0.00 0.00 0.00 81 1006.9
20260509172930 55 175 1.0 1.0 0.00 0.00 0.00 81 1006.9
20260509172427 55 187 4.0 5.0 0.00 0.00 0.00 81 1006.9
20260509171922 56 186 2.0 2.0 0.00 0.00 0.00 81 1006.8
20260509171419 55 167 1.0 1.0 0.00 0.00 0.00 82 1006.9
20260509170915 55 167 1.0 1.0 0.00 0.00 0.00 81 1006.8
20260509170411 55 158 0.0 0.0 0.00 0.00 0.00 82 1006.9
20260509165907 54 162 0.0 0.0 0.00 0.00 0.00 83 1007.1
20260509165401 54 152 0.0 0.0 0.00 0.00 0.00 82 1007.3
20260509164857 54 166 1.0 1.0 0.00 0.00 0.00 82 1007.3
20260509164353 55 165 1.0 1.0 0.00 0.00 0.00 82 1007.3
20260509163849 55 156 0.0 0.0 0.00 0.00 0.00 82 1007.0
20260509163346 54 154 0.0 0.0 0.00 0.00 0.00 82 1007.1
20260509162845 54 168 1.0 1.0 0.00 0.00 0.00 82 1007.5
20260509162338 54 175 1.0 2.0 0.00 0.00 0.00 82 1007.4
20260509161834 54 164 1.0 2.0 0.00 0.00 0.00 82 1007.7
20260509161331 54 225 3.0 3.0 0.00 0.00 0.00 82 1008.0
20260509160826 54 168 0.0 1.0 0.00 0.00 0.00 82 1007.7
20260509160323 54 148 0.0 0.0 0.00 0.00 0.00 83 1007.9
20260509155818 54 157 1.0 1.0 0.00 0.00 0.00 83 1007.7
20260509155315 53 151 1.0 1.0 0.00 0.00 0.00 85 1008.0
20260509154811 53 149 0.0 0.0 0.00 0.00 0.00 85 1008.2
20260509154308 52 149 0.0 0.0 0.00 0.00 0.00 86 1007.9
20260509153805 52 149 0.0 0.0 0.00 0.00 0.00 86 1007.8
20260509153301 51 156 0.0 0.0 0.00 0.00 0.00 86 1008.1
20260509152758 52 147 0.0 0.0 0.00 0.00 0.00 86 1008.1
20260509152253 52 154 0.0 0.0 0.00 0.00 0.00 86 1008.0
20260509151751 52 155 0.0 0.0 0.00 0.00 0.00 86 1008.1
20260509151247 52 165 0.0 0.0 0.00 0.00 0.00 86 1008.0
20260509150746 52 154 0.0 0.0 0.00 0.00 0.00 85 1008.0
20260509150244 52 176 2.0 2.0 0.00 0.00 0.00 85 1008.1
20260509145740 52 161 0.0 0.0 0.00 0.00 0.00 85 1008.3
20260509145240 52 178 1.0 1.0 0.00 0.00 0.00 84 1008.2
20260509144737 53 177 1.0 2.0 0.00 0.00 0.00 84 1008.3
20260509144234 53 170 1.0 1.0 0.00 0.00 0.00 85 1008.3
20260509143731 52 178 2.0 3.0 0.00 0.00 0.00 85 1008.3
20260509143228 52 167 0.0 1.0 0.00 0.00 0.00 85 1008.5
20260509142724 52 154 0.0 1.0 0.00 0.00 0.00 86 1008.5
20260509142221 52 215 2.0 2.0 0.00 0.00 0.00 86 1008.2
20260509141716 52 155 0.0 0.0 0.00 0.00 0.00 86 1008.6
20260509141214 52 169 1.0 1.0 0.00 0.00 0.00 86 1008.4
20260509140710 52 149 0.0 0.0 0.00 0.00 0.00 86 1008.3
20260509140208 51 138 0.0 0.0 0.00 0.00 0.00 86 1008.5
20260509135705 51 133 1.0 1.0 0.00 0.00 0.00 86 1008.3
20260509135203 51 143 0.0 0.0 0.00 0.00 0.00 86 1008.3
20260509134659 51 145 1.0 1.0 0.00 0.00 0.00 86 1008.3
20260509134157 51 141 0.0 0.0 0.00 0.00 0.00 86 1008.5
20260509133654 51 145 0.0 0.0 0.00 0.00 0.00 86 1008.6
20260509133151 50 147 1.0 1.0 0.00 0.00 0.00 87 1008.9
20260509132649 50 138 1.0 1.0 0.00 0.00 0.00 87 1008.8
20260509132147 50 153 0.0 1.0 0.00 0.00 0.00 87 1008.7
20260509131643 50 144 0.0 0.0 0.00 0.00 0.00 87 1008.7
20260509131140 49 142 0.0 0.0 0.00 0.00 0.00 88 1008.7
20260509130636 49 140 0.0 0.0 0.00 0.00 0.00 88 1008.9
20260509130132 49 144 0.0 0.0 0.00 0.00 0.00 88 1008.8
20260509125629 49 138 0.0 0.0 0.00 0.00 0.00 88 1008.8
20260509125126 48 142 0.0 0.0 0.00 0.00 0.00 87 1008.7
20260509124622 48 144 0.0 1.0 0.00 0.00 0.00 87 1008.3
20260509124119 48 148 0.0 1.0 0.00 0.00 0.00 87 1008.4
20260509123617 48 146 0.0 0.0 0.00 0.00 0.00 87 1008.4
20260509123114 48 151 0.0 0.0 0.00 0.00 0.00 87 1008.4
20260509122610 47 145 0.0 0.0 0.00 0.00 0.00 87 1008.4
20260509122107 47 145 0.0 0.0 0.00 0.00 0.00 87 1008.4
20260509121603 47 151 0.0 0.0 0.00 0.00 0.00 86 1008.7
20260509121101 46 151 0.0 0.0 0.00 0.00 0.00 86 1008.6
20260509120559 46 152 0.0 0.0 0.00 0.00 0.00 86 1008.8
20260509120057 46 143 0.0 0.0 0.00 0.00 0.00 86 1008.9
20260509115554 46 145 0.0 0.0 0.00 0.00 0.00 86 1008.9